Location: Downe
(51.3167°N, 0.0500°E)
Time: 09:39:27
(UTC+00:00)

BREEZE-M DEB (TANK) - Pass Details

Date: 17 November 2019
Orbit: 328 x 16736 km, 49.5° (Epoch: 06 December)

Event Time Altitude Azimuth Distance (km) Brightness Sun altitude
Exits shadow 05:05:33 17° 187° (S) 1,194 4.5 -20.7°
Drops below altitude 10° 05:07:39 10° 155° (SSE) 1,966 6.0 -20.4°
Sets 05:11:49 0° 138° (SE) 3,943 7.9 -19.7°
